Theta_e
292 292 293 294 295 296 296 298 299 299 300 299 299 300 300 300 298 298 299 295 297 299 298 295 294 298 299 302 301 300 303 301 302 308 310 308 309 305 306 307 307 309 310 311 310 310 311 307 304 305 305 304 304 300
292 292 293 293 294 294 295 296 297 298 299 300 300 299 299 300 299 298 299 297 295 296 296 294 293 292 293 292 297 298 301 302 306 307 306 309 306 304 307 307 304 307 308 309 308 309 304 304 304 304 301 303 299 297
291 292 292 292 293 293 294 295 296 297 298 298 298 299 299 299 299 297 299 297 297 293 297 296 295 292 292 293 293 300 299 299 302 299 305 304 306 304 307 305 305 303 303 305 305 305 304 303 301 295 294 295 293 291
291 291 292 291 292 293 293 293 295 297 298 298 299 298 297 298 298 298 298 296 297 295 300 301 291 291 290 291 292 293 295 296 297 299 302 304 305 303 305 304 304 304 304 304 304 303 303 302 299 298 293 289 287 286
290 291 291 291 291 292 292 292 295 296 296 296 299 298 298 299 298 298 297 295 294 297 300 300 291 289 289 290 292 292 293 295 297 300 301 303 304 301 301 298 302 302 302 304 304 302 303 302 294 294 292 289 286 285
290 290 291 291 290 291 292 292 293 295 296 295 298 299 298 299 299 298 294 294 295 294 295 300 292 288 287 287 290 291 292 293 295 298 301 303 296 302 303 304 302 301 297 299 302 294 293 288 285 285 288 286 284 283
290 290 290 291 290 290 291 291 292 295 296 294 292 297 299 299 298 294 295 292 294 295 297 299 298 287 283 286 291 292 292 294 295 297 298 299 298 298 302 303 301 299 300 292 287 287 289 285 289 283 282 281 279 279
289 290 290 290 290 289 290 290 291 293 295 294 293 292 292 295 295 292 291 292 293 293 293 300 299 292 282 292 295 291 294 293 294 296 293 294 294 295 300 300 300 299 289 286 284 282 282 282 280 279 278 276 276 276
290 289 290 290 290 288 289 289 289 292 294 293 291 291 289 286 291 288 286 287 291 290 299 295 299 301 284 289 289 291 292 295 292 294 293 290 295 296 297 297 295 289 285 286 278 277 278 279 278 276 276 276 276 274
290 289 290 290 289 288 289 289 289 287 290 291 291 287 291 286 287 288 285 289 288 285 286 293 282 294 284 289 292 291 292 295 295 292 285 289 293 294 293 284 282 281 278 276 278 277 276 277 277 276 276 277 277 275
290 290 291 289 289 288 289 289 287 285 289 289 290 290 283 287 285 285 289 288 285 287 284 283 283 291 280 291 294 286 293 291 295 291 290 296 294 293 279 278 276 278 276 277 276 274 278 279 277 275 275 274 273 272
290 290 289 289 288 287 289 289 286 284 284 283 283 281 281 284 285 287 289 280 282 291 279 284 282 281 280 278 286 285 290 286 293 279 286 293 295 281 276 274 272 273 273 272 267 270 270 273 274 273 272 270 269 268
290 289 289 289 287 288 288 287 284 282 281 280 283 284 287 283 287 288 287 289 285 279 277 277 281 280 277 279 283 284 287 290 277 284 290 293 286 278 274 269 266 263 264 265 265 265 265 266 267 268 266 267 266 265
290 289 289 289 287 288 288 287 286 281 280 285 286 285 288 287 286 290 293 294 277 278 275 279 277 282 277 282 280 287 281 276 286 287 290 294 283 276 270 268 265 265 264 265 265 264 262 263 263 264 265 265 265 263
291 290 290 289 287 289 288 287 285 280 279 285 284 287 284 282 275 268 262 268 268 273 276 277 277 278 278 280 277 279 281 285 288 291 292 286 276 271 269 267 267 265 264 264 264 263 263 262 263 262 263 264 264 264
291 292 291 288 287 288 288 287 282 278 275 279 277 284 272 277 281 269 267 272 267 271 271 276 278 280 283 281 280 283 287 287 290 288 286 277 271 270 269 268 267 267 265 265 264 263 262 262 262 263 262 263 263 264
291 291 291 288 287 288 288 283 277 278 281 281 283 269 275 277 281 275 271 272 268 274 282 280 281 285 273 280 281 283 285 291 288 284 278 274 274 272 269 267 266 265 265 264 263 263 262 262 262 260 261 261 262 262
291 290 290 288 288 288 281 276 276 277 279 280 281 276 268 267 271 269 266 266 270 273 275 280 275 278 282 284 286 287 282 281 276 276 276 272 270 268 268 269 266 265 265 263 263 262 261 260 261 263 264 263 261 261
290 290 290 289 288 287 282 274 273 281 279 270 268 266 266 265 262 261 262 264 264 264 269 272 277 280 284 284 287 288 283 279 281 274 272 268 268 267 267 267 265 265 264 263 262 263 262 262 264 265 265 262 263 262
291 291 290 289 288 285 283 277 268 275 278 270 266 267 267 266 262 262 263 264 266 269 271 273 276 283 284 284 279 281 278 276 275 276 275 270 266 265 267 267 267 266 264 262 262 262 263 262 262 263 263 263 263 264
290 288 285 287 285 284 284 278 275 272 268 270 265 266 267 262 264 265 265 265 268 271 274 277 279 279 272 269 266 267 271 272 276 278 281 276 267 267 266 266 265 265 265 264 264 263 262 264 265 262 262 262 263 263
287 284 282 279 280 275 277 268 272 268 269 267 266 265 268 269 267 265 264 266 269 273 274 275 274 271 272 271 269 265 265 267 267 267 266 267 267 267 266 265 265 266 265 266 265 266 264 263 264 263 262 262 262 262
284 283 279 277 281 278 275 266 271 269 275 272 266 270 270 267 264 262 265 268 270 271 268 268 266 264 266 264 263 264 264 267 269 270 269 268 268 268 267 265 265 267 267 266 265 265 265 263 263 262 262 261 261 260
283 280 280 282 281 278 268 270 270 270 270 271 272 276 271 267 262 264 268 271 271 267 265 265 264 266 266 264 267 269 266 265 268 267 266 268 269 267 266 265 264 265 265 264 263 262 262 262 262 261 261 260 260 260
284 283 280 280 271 271 272 271 271 271 274 274 274 275 268 262 269 269 270 273 270 269 266 263 263 265 268 270 269 266 263 265 268 270 266 265 265 264 264 262 262 263 263 262 261 261 261 261 261 261 260 260 260 259
285 283 280 282 274 275 275 274 272 273 274 273 273 266 264 269 271 275 274 271 268 266 265 264 265 267 268 268 269 268 264 263 264 268 263 263 264 266 268 267 267 263 262 262 262 262 261 260 260 260 260 260 259 259
285 283 273 267 273 273 272 271 272 273 273 274 271 267 269 275 277 275 268 264 265 262 261 261 263 267 268 266 262 260 260 261 261 261 260 261 261 262 262 263 264 261 262 261 261 262 262 261 260 260 260 260 260 260
281 276 278 271 271 273 276 274 274 274 275 274 271 271 275 277 278 270 267 262 261 261 261 261 261 261 261 260 260 260 260 260 260 260 260 260 260 260 261 261 261 261 261 261 261 261 261 261 261 261 260 261 261 260
273 271 273 272 271 272 274 276 276 276 271 272 275 276 274 270 267 267 263 261 261 262 264 264 261 260 259 259 259 258 259 259 262 262 263 264 262 260 260 260 261 261 261 261 261 261 261 261 260 260 260 260 260 260
271 269 274 274 275 276 272 267 269 264 264 265 265 267 268 267 263 262 262 261 262 264 263 262 261 261 262 262 259 258 258 259 259 260 263 262 260 259 260 260 260 261 261 261 261 261 260 260 260 260 260 260 260 259
268 270 272 274 273 265 263 262 262 263 263 264 263 266 267 264 263 261 261 261 262 262 262 263 261 259 260 260 261 261 260 260 260 261 261 261 261 260 260 261 261 261 261 261 261 261 261 261 260 260 259 259 259 258
268 271 272 272 268 262 262 264 264 265 264 265 265 263 265 266 269 263 258 259 260 262 261 261 261 260 260 261 261 261 261 262 262 262 261 261 262 262 262 261 261 261 261 261 261 260 260 260 260 259 259 259 259 258
266 267 267 266 265 265 263 264 265 265 265 266 264 261 261 262 268 261 258 258 258 259 259 260 260 261 262 262 262 262 262 262 263 262 262 262 262 262 262 262 262 262 262 261 261 261 261 260 260 259 259 258 258 258
Wind_Speed
22 22 23 23 21 20 17 13 9 6 5 7 7 7 4 4 3 9 4 1 4 3 1 2 4 3 3 3 6 2 4 4 3 5 5 3 4 7 6 9 8 13 8 9 10 11 16 18 4 9 12 12 11 5
21 20 21 21 20 19 16 12 6 4 3 7 9 10 9 6 4 4 5 5 2 2 1 2 1 2 2 1 2 3 4 1 4 3 1 0 3 3 3 6 13 8 13 12 9 6 1 4 11 11 5 8 5 4
19 20 19 19 18 17 16 12 8 9 9 10 13 15 12 7 6 4 3 6 1 2 2 2 1 2 3 3 2 3 2 3 3 2 2 1 5 4 6 8 10 9 13 6 13 17 13 8 6 3 4 7 3 4
18 19 19 18 18 17 16 14 9 10 10 14 12 14 12 8 7 4 1 3 2 1 1 0 3 3 2 2 3 4 5 6 3 2 1 3 4 3 3 4 4 7 6 10 10 14 14 12 9 7 10 8 6 4
17 16 18 19 18 19 17 14 7 8 12 13 10 7 7 10 6 4 2 3 2 1 2 3 2 1 1 4 4 4 3 2 1 2 3 4 3 2 2 1 7 14 15 10 11 11 10 14 3 3 9 11 10 9
15 15 16 18 18 18 19 18 9 3 9 12 10 1 6 6 6 2 2 3 3 3 1 3 2 3 6 7 5 3 1 1 1 2 3 3 3 1 4 10 27 9 2 4 15 1 2 2 1 1 6 5 5 7
15 15 15 15 17 16 18 19 14 4 4 7 8 4 3 7 7 2 2 1 1 1 1 3 3 2 5 3 1 1 2 1 1 2 3 3 1 3 6 19 15 9 12 6 4 5 5 7 3 5 5 7 10 11
15 15 15 15 15 14 16 17 14 5 4 2 3 6 5 1 1 1 4 3 2 1 1 3 2 2 5 1 0 1 1 2 4 2 1 2 1 3 8 10 9 15 6 6 7 2 3 7 6 7 8 9 9 9
14 14 15 15 16 15 16 15 13 4 4 5 6 7 3 2 1 1 2 2 0 1 2 2 3 2 1 1 1 0 1 3 1 3 2 1 4 9 8 9 7 6 5 3 7 5 4 4 7 8 8 8 8 8
13 14 13 14 15 15 17 16 15 10 6 8 6 2 2 2 2 3 1 1 1 2 2 3 1 2 2 2 3 1 2 2 3 2 0 4 5 10 8 3 1 6 8 9 5 3 4 5 9 9 10 6 5 7
13 13 13 14 13 15 16 17 17 9 3 2 2 1 0 3 1 1 2 2 1 3 2 1 1 2 1 3 2 1 1 1 3 3 3 3 5 5 3 4 2 5 8 7 3 2 5 3 9 10 8 7 7 10
12 11 12 13 13 12 14 15 16 5 2 1 0 2 1 1 0 2 2 1 4 3 3 2 2 1 1 1 2 2 2 1 5 1 2 4 4 3 5 4 4 2 3 4 3 2 3 1 4 6 6 6 9 12
11 12 13 14 15 10 12 11 15 12 4 1 1 1 1 2 3 5 5 3 3 5 6 4 3 2 2 2 1 2 3 4 1 3 4 5 1 2 4 4 3 2 3 4 3 3 5 4 8 7 7 11 15 16
13 12 13 15 13 9 12 14 17 8 1 2 3 4 4 4 6 5 3 1 2 3 5 3 3 2 1 3 1 4 1 1 3 4 7 2 2 3 5 4 5 5 4 5 4 4 5 6 5 7 10 15 16 14
15 14 13 12 7 8 12 16 16 4 2 3 3 5 7 2 1 1 1 2 1 2 3 3 2 2 2 2 2 1 2 5 6 5 2 1 1 4 5 6 5 7 5 4 3 4 5 9 9 10 13 15 14 15
13 15 16 10 8 11 15 16 8 3 1 2 4 3 2 2 2 2 3 2 3 3 1 0 3 2 5 3 5 9 4 7 4 3 0 0 2 3 4 6 5 6 7 5 7 7 10 11 10 10 14 14 14 15
12 7 9 10 12 13 15 3 2 2 3 4 4 0 2 2 2 2 2 2 6 4 3 3 5 8 2 2 4 5 5 2 2 2 2 3 4 5 4 5 5 5 5 7 7 8 7 10 12 13 7 13 15 13
18 18 14 13 14 10 2 3 1 2 6 3 3 2 1 1 1 2 2 3 4 3 2 3 2 5 6 6 4 4 6 2 2 2 1 2 3 3 5 7 7 9 8 8 9 10 11 11 8 7 9 14 15 11
18 16 17 12 14 5 2 2 2 4 3 1 0 1 0 1 1 1 0 3 1 1 1 1 4 4 4 4 4 2 2 3 3 3 2 3 3 4 6 7 9 9 9 10 9 9 9 12 7 7 9 13 10 10
17 16 15 16 12 5 2 2 2 2 3 1 1 1 0 1 1 1 2 4 2 2 3 5 6 4 3 1 1 2 2 1 2 2 2 3 5 6 7 8 7 10 9 8 8 7 7 7 10 10 9 11 10 9
14 14 16 15 11 10 2 3 2 1 1 1 1 1 1 1 2 3 3 4 3 4 5 6 5 2 1 1 2 2 2 1 2 2 2 4 4 6 7 6 7 8 7 7 4 7 10 10 8 14 13 14 14 10
11 23 10 10 4 3 0 1 1 2 1 1 1 1 2 2 2 2 4 4 4 4 4 2 2 3 3 3 1 3 3 2 2 2 3 7 4 3 4 7 8 5 7 8 10 9 10 11 11 12 15 14 13 12
21 12 5 4 4 5 2 3 3 4 3 2 1 2 2 2 1 2 3 4 4 2 1 2 2 2 3 3 3 4 3 4 2 1 2 2 5 4 6 8 8 6 4 8 9 9 8 10 13 14 12 12 11 12
9 7 6 5 7 3 2 3 2 2 1 2 3 3 2 2 3 2 4 3 2 0 1 1 2 3 2 2 2 2 3 4 2 2 1 2 1 2 2 3 4 5 4 3 7 9 9 9 11 13 13 13 13 12
4 6 5 6 2 4 5 5 4 3 4 4 4 3 3 3 2 4 4 2 1 1 1 2 2 2 2 2 1 1 0 2 1 2 2 2 2 3 2 1 3 4 7 7 6 6 8 11 12 13 13 14 13 14
7 8 10 8 5 6 7 6 7 7 4 5 6 2 2 2 3 6 3 2 1 1 1 1 1 0 1 1 1 1 2 1 1 0 2 1 2 0 1 2 1 2 5 9 7 8 8 9 12 13 13 13 13 13
7 7 2 1 3 4 3 2 2 3 6 6 4 5 4 4 6 3 1 1 1 1 1 1 3 3 2 3 4 4 3 3 3 3 4 4 2 3 1 0 1 1 2 5 9 7 8 10 10 11 12 12 12 13
2 4 7 7 3 1 4 4 6 7 4 3 6 6 6 5 2 1 1 1 2 3 4 4 4 3 4 4 3 3 2 3 3 3 5 5 4 3 1 4 4 4 3 1 5 7 7 6 7 8 8 9 7 7
3 3 4 4 3 3 5 7 5 3 1 4 4 4 3 1 1 1 1 2 5 4 3 2 1 3 4 4 3 2 2 2 0 1 1 1 1 3 2 3 6 3 4 5 5 3 4 3 4 5 5 5 6 7
3 2 2 4 5 6 2 2 1 1 1 2 2 1 1 1 2 1 2 3 2 1 2 2 1 1 1 1 3 5 5 4 3 1 2 1 1 1 3 5 6 4 3 4 6 8 6 3 2 2 1 3 6 8
2 2 1 1 1 2 2 1 1 1 1 1 1 1 1 2 1 1 1 1 2 3 2 1 1 2 4 3 3 2 2 4 8 10 9 7 7 6 7 6 6 5 4 3 3 2 1 2 4 6 8 10 11 13
1 2 2 3 2 1 0 1 1 1 1 0 0 1 1 1 1 2 3 1 2 2 2 2 2 3 4 4 5 5 6 10 8 6 6 7 8 8 8 7 6 5 4 2 0 2 3 5 8 10 12 15 17 18
2 1 2 2 2 2 2 2 1 2 1 1 1 1 1 1 1 2 4 1 1 3 3 4 4 7 7 6 6 7 7 7 7 6 6 6 6 6 6 5 4 2 1 2 4 6 8 10 13 15 17 19 22 24
Wind_Direction
16 13 15 17 16 20 27 35 48 57 105 116 126 122 88 30 7 219 265 310 226 244 229 359 325 5 43 200 213 211 159 176 159 207 211 159 211 205 192 203 177 195 201 217 235 243 248 226 133 206 236 237 244 200
13 12 13 15 14 11 14 21 22 341 304 276 270 255 279 296 303 305 271 292 271 238 162 160 138 73 77 84 324 155 306 195 122 190 211 175 190 178 211 235 206 213 209 213 208 230 90 195 222 221 243 249 235 227
8 9 9 10 11 8 5 2 2 360 346 305 267 260 268 270 273 280 272 315 310 1 284 178 173 348 339 339 340 278 233 17 70 30 157 223 245 166 201 228 241 220 246 251 259 254 243 250 241 230 210 232 245 235
2 4 5 5 5 4 1 357 348 349 329 333 300 252 247 249 261 287 319 324 342 47 297 154 121 159 303 324 329 1 16 31 26 350 189 215 230 195 249 278 254 241 176 219 246 257 264 274 252 233 216 222 223 198
358 359 360 0 360 358 355 352 345 355 351 346 340 244 227 233 249 303 326 30 55 335 281 288 300 9 174 179 169 145 157 138 190 224 221 230 257 203 182 313 249 226 228 218 235 247 238 255 337 268 204 212 204 181
352 355 356 357 355 355 352 348 335 335 337 349 7 188 204 229 205 169 14 8 356 70 4 294 36 1 352 352 8 24 146 152 202 233 248 246 109 209 257 245 245 244 199 241 249 136 253 339 34 280 235 193 169 173
344 348 351 353 351 352 352 350 344 303 342 6 33 45 167 219 212 110 179 245 115 141 264 285 257 57 352 334 354 30 124 169 234 254 236 266 215 201 253 253 251 249 235 192 181 140 242 199 270 147 144 126 108 96
340 340 343 347 349 351 353 351 355 317 293 297 351 3 23 40 116 335 345 248 190 122 253 259 260 278 12 108 146 49 191 182 204 271 244 234 171 214 253 264 254 248 177 185 185 176 42 97 117 119 120 128 132 133
336 334 337 341 345 349 352 352 350 347 273 275 298 301 273 217 144 89 344 351 282 186 260 216 235 249 355 105 7 195 300 248 83 250 206 248 211 226 239 236 233 205 201 161 115 104 133 166 158 157 162 167 161 156
329 329 329 334 337 343 349 346 342 320 255 275 274 239 224 175 170 104 18 241 257 334 325 246 20 175 316 164 164 174 199 246 244 171 328 229 254 270 255 185 36 154 139 137 126 188 186 195 190 186 191 183 173 159
326 327 325 328 330 335 344 342 339 336 276 201 238 273 112 141 100 51 189 239 29 247 186 37 266 183 104 198 208 279 257 193 242 146 235 236 260 233 147 162 131 146 161 170 88 50 202 199 184 177 178 168 155 153
323 326 330 327 327 331 339 340 342 352 330 283 290 114 115 60 119 226 197 145 216 240 166 193 142 290 117 309 229 175 252 190 253 84 242 251 238 147 177 180 169 161 155 137 45 35 58 337 161 152 143 127 124 136
314 316 323 324 324 335 341 345 341 341 311 307 124 225 193 170 201 208 210 211 234 179 177 173 160 167 154 229 180 223 231 227 102 223 236 240 135 179 173 138 131 90 91 112 102 89 77 93 117 122 125 146 154 151
299 307 308 305 306 324 330 336 341 327 268 209 172 254 202 197 243 203 216 138 70 108 143 144 115 194 147 163 135 220 113 286 245 243 241 253 346 158 145 150 141 178 161 138 121 107 99 114 104 105 148 159 156 150
277 284 289 288 293 311 316 325 332 304 213 225 172 235 217 267 208 36 23 271 171 128 137 121 94 221 137 180 209 108 201 241 225 236 251 329 17 150 162 171 168 160 169 165 148 154 148 150 150 141 157 163 166 164
288 281 263 273 240 281 312 320 309 206 56 202 232 260 147 269 198 187 180 227 170 150 130 32 126 167 227 194 178 216 213 221 233 218 305 49 190 187 168 173 177 170 171 159 166 165 154 158 159 155 159 166 169 175
278 246 267 242 240 283 305 303 190 209 249 218 238 116 303 300 277 101 142 137 165 176 199 160 188 219 96 219 233 203 221 240 219 229 191 193 181 195 171 164 165 163 162 159 154 157 157 166 157 148 159 183 180 185
254 267 271 240 248 283 262 185 194 224 246 210 229 125 201 348 74 134 154 164 163 206 197 217 118 203 215 208 220 221 229 240 214 231 233 183 182 168 166 179 168 170 166 163 168 165 165 168 181 194 176 179 180 187
261 266 266 241 234 211 213 198 187 256 237 30 69 127 319 39 49 63 98 182 143 15 281 216 244 224 228 221 251 234 217 212 200 177 185 160 170 169 166 156 159 166 168 169 177 184 188 195 201 197 184 179 188 190
257 259 241 234 233 180 233 203 186 259 259 85 132 186 277 40 91 154 174 182 203 218 210 218 223 226 217 267 326 323 346 168 143 170 185 174 172 165 181 175 179 173 165 166 174 173 180 194 214 211 203 200 192 196
233 201 183 212 194 202 240 163 217 241 141 241 77 235 172 168 201 189 180 169 205 224 235 233 243 310 33 0 336 312 308 270 256 321 327 159 156 169 158 163 157 167 174 181 188 197 204 212 210 211 212 216 217 214
198 190 182 187 178 168 140 55 135 121 193 75 207 202 230 223 195 183 135 201 234 237 222 263 347 344 327 300 312 251 291 260 115 111 88 110 131 165 179 181 169 187 199 203 200 206 210 208 205 209 212 219 219 221
167 168 144 163 195 201 167 154 186 177 223 157 167 244 215 209 132 140 242 232 258 251 312 300 305 282 283 297 279 264 254 224 202 175 169 85 98 125 136 168 185 189 200 217 211 209 204 206 209 208 208 206 212 216
164 161 181 213 206 160 136 170 173 172 167 213 201 249 203 164 146 204 253 248 239 179 245 291 296 282 250 253 253 238 193 214 156 133 138 119 118 115 110 129 181 208 212 184 204 209 207 202 201 200 205 209 214 214
172 209 192 198 115 128 182 168 177 186 239 169 201 228 182 165 215 228 238 257 228 246 329 317 261 248 294 323 26 79 151 230 219 150 111 170 105 106 106 205 222 223 216 202 203 198 204 200 201 204 209 213 215 222
210 195 190 192 156 186 182 166 195 200 173 189 219 109 169 190 235 244 222 208 228 256 316 306 354 279 238 358 2 70 43 4 310 68 68 138 192 270 166 191 173 156 220 210 203 199 197 202 209 210 217 223 224 224
217 192 139 15 130 127 108 77 114 172 188 203 173 167 173 219 234 238 93 185 245 160 205 333 318 316 357 82 77 59 77 69 73 98 103 87 120 184 168 125 87 55 296 214 206 203 204 203 204 213 222 228 232 233
236 170 177 168 154 197 145 164 184 204 197 151 141 187 198 212 256 71 56 120 168 138 111 81 66 63 71 75 83 89 97 104 92 90 76 60 48 60 103 165 112 64 59 148 192 202 202 202 213 217 221 229 239 245
179 159 142 139 130 190 207 192 206 182 82 169 192 195 216 57 29 64 99 138 140 134 125 138 90 64 62 59 53 66 111 136 108 60 32 8 13 23 26 152 172 119 72 75 90 119 166 192 220 221 233 247 259 264
158 186 151 157 178 202 135 7 76 75 24 18 356 269 223 159 66 95 135 156 174 166 119 104 105 16 69 94 101 76 93 93 71 68 113 119 104 87 113 130 144 143 129 116 116 125 141 155 83 85 271 281 286 287
117 162 134 152 127 72 64 59 79 74 52 64 34 301 329 336 354 26 201 211 201 183 170 186 111 100 118 117 117 123 106 116 108 100 95 91 89 103 119 121 125 125 124 134 153 186 223 289 304 302 299 299 298 297
122 159 162 170 140 99 171 174 107 112 71 207 116 336 293 261 249 102 11 19 195 207 203 175 135 146 141 119 109 107 123 140 138 115 92 90 93 102 113 117 117 113 110 111 138 287 299 300 300 302 302 302 304 304
100 98 84 112 126 160 167 170 165 145 175 178 89 15 1 324 28 27 5 349 188 199 166 164 144 140 131 117 111 115 131 146 152 146 131 124 119 112 104 98 93 80 45 340 322 316 313 309 306 305 304 304 305 306